Weather History for Ellsworth AFB, SD

Change the Weather History Date:

Sunday, May 19, 2013

  Actual Average Record
Temperature  
Mean Temperature 55 °F -  
Max Temperature 59 °F 64 °F 84 °F (2005)
Min Temperature 50 °F 43 °F 32 °F (2003)
Degree Days  
Heating Degree Days 10    
Growing Degree Days 5 (Base 50)    
Moisture  
Dew Point 53 °F    
Average Humidity 91    
Maximum Humidity 100    
Minimum Humidity 82    
Precipitation  
Precipitation 0.35 in - - ()
Sea Level Pressure  
Sea Level Pressure 29.72 in    
Wind  
Wind Speed 19 mph (NNW)    
Max Wind Speed 30 mph    
Max Gust Speed 41 mph    
Visibility 9 miles    
Events Rain    
Averages and records for this station are not official NWS values.
T = Trace of Precipitation, MM = Missing Value Source: NWS Daily Summary

Daily Weather History Graph

Daily Weather History Graph

Search for Another Location

Airport:

Trip Planner

Search our weather history database for the weather conditions in past years. The results will help you decide how hot, cold, wet, or windy it might be!

Date:

Astronomy

May. 19, 2013 Rise Set
Actual Time 5:21 AM MDT 8:16 PM MDT
Civil Twilight 4:47 AM MDT 8:51 PM MDT
Nautical Twilight 4:04 AM MDT 9:34 PM MDT
Astronomical Twilight 3:13 AM MDT 10:25 PM MDT
Moon 2:11 PM MDT (5/19) 1:59 AM MDT (5/19)
Length of Visible Light 16h 03m
Length of Day
14h 55m
Waxing Gibbous, 66% of the Moon is Illuminated
May 19
Waxing Gibbous
May 24
Full
May 31
Last Quarter
Jun 8
New
Jun 16
First Quarter

Hourly Weather History & Observations

Time (MDT) Temp. Dew Point Humidity Pressure Visibility Wind Dir Wind Speed Gust Speed Precip Events Conditions
12:57 AM 55.4 °F 53.6 °F 94% 29.74 in 10.0 mi NNW 21.9 mph 26.5 mph N/A   Overcast
12:58 AM 55.4 °F 53.6 °F 94% 29.70 in 10.0 mi NNW 20.7 mph 26.5 mph N/A   Overcast
1:03 AM 55.4 °F 53.6 °F 94% 29.73 in 10.0 mi NNW 21.9 mph 26.5 mph N/A   Overcast
1:08 AM 55.4 °F 53.6 °F 94% 29.73 in 10.0 mi NNW 26.5 mph - N/A   Overcast
1:23 AM 55.4 °F 53.6 °F 94% 29.74 in 10.0 mi NNW 20.7 mph - N/A   Overcast
1:33 AM 55.4 °F 53.6 °F 94% 29.74 in 10.0 mi NNW 19.6 mph - N/A   Overcast
1:48 AM 55.4 °F 53.6 °F 94% 29.74 in 10.0 mi NNW 20.7 mph 25.3 mph N/A   Mostly Cloudy
1:58 AM 55.6 °F 53.2 °F 92% 29.72 in 10.0 mi North 15.0 mph 26.5 mph N/A   Overcast
2:03 AM 55.4 °F 53.6 °F 94% 29.74 in 10.0 mi NNW 18.4 mph - N/A   Overcast
2:12 AM 55.4 °F 53.6 °F 94% 29.75 in 10.0 mi NW 19.6 mph - N/A   Light Drizzle
2:17 AM 55.4 °F 53.6 °F 94% 29.75 in 10.0 mi NNW 18.4 mph - N/A Rain Light Rain
2:29 AM 55.4 °F 53.6 °F 94% 29.76 in 10.0 mi NNW 19.6 mph 26.5 mph N/A Rain Light Rain
2:34 AM 55.4 °F 53.6 °F 94% 29.76 in 10.0 mi NNW 16.1 mph 26.5 mph N/A Rain Light Rain
2:39 AM 55.4 °F 53.6 °F 94% 29.76 in 10.0 mi North 17.3 mph - N/A Rain Rain
2:49 AM 55.4 °F 53.6 °F 94% 29.76 in 10.0 mi North 17.3 mph - N/A Rain Rain
2:54 AM 55.4 °F 53.6 °F 94% 29.76 in 10.0 mi North 13.8 mph - N/A Rain Rain
2:58 AM 55.4 °F 54.0 °F 95% 29.73 in 10.0 mi North 11.5 mph - 0.03 in Rain Light Rain
3:03 AM 55.4 °F 53.6 °F 94% 29.75 in 10.0 mi NNW 17.3 mph 20.7 mph N/A Rain Light Rain
3:58 AM 54.7 °F 53.1 °F 94% 29.70 in 10.0 mi NW 13.8 mph - 0.04 in Rain Light Rain
4:58 AM 54.9 °F 53.4 °F 95% 29.71 in 10.0 mi North 13.8 mph - 0.01 in Rain Light Rain
5:18 AM 55.4 °F 53.6 °F 94% 29.73 in 10.0 mi North 15.0 mph - N/A   Overcast
5:58 AM 55.2 °F 53.6 °F 94% 29.72 in 10.0 mi North 15.0 mph - 0.00 in   Overcast
6:03 AM 55.4 °F 53.6 °F 94% 29.74 in 10.0 mi North 12.7 mph - N/A   Light Drizzle
6:08 AM 55.4 °F 53.6 °F 94% 29.74 in 10.0 mi North 13.8 mph - N/A Rain Light Rain
6:13 AM 55.4 °F 53.6 °F 94% 29.74 in 10.0 mi North 12.7 mph - N/A Rain Light Rain
6:23 AM 55.4 °F 53.6 °F 94% 29.74 in 10.0 mi North 12.7 mph - N/A   Overcast
6:38 AM 55.4 °F 53.6 °F 94% 29.74 in 10.0 mi North 8.1 mph - N/A   Overcast
6:48 AM 55.4 °F 53.6 °F 94% 29.74 in 10.0 mi North 9.2 mph - N/A   Overcast
6:58 AM 55.4 °F 53.6 °F 94% 29.72 in 10.0 mi NNW 8.1 mph - 0.00 in   Overcast
7:03 AM 55.4 °F 53.6 °F 94% 29.74 in 10.0 mi North 8.1 mph - N/A   Overcast
7:08 AM 55.4 °F 53.6 °F 94% 29.74 in 10.0 mi North 8.1 mph - N/A   Overcast
7:58 AM 55.9 °F 53.4 °F 91% 29.71 in 10.0 mi NNW 13.8 mph - N/A   Overcast
8:33 AM 55.4 °F 53.6 °F 94% 29.73 in 10.0 mi NW 16.1 mph - N/A   Overcast
8:38 AM 55.4 °F 53.6 °F 94% 29.73 in 10.0 mi NW 15.0 mph - N/A   Overcast
8:42 AM 55.4 °F 53.6 °F 94% 29.73 in 10.0 mi NW 13.8 mph - N/A   Overcast
8:47 AM 55.4 °F 53.6 °F 94% 29.73 in 10.0 mi NW 18.4 mph - N/A   Overcast
8:52 AM 55.4 °F 53.6 °F 94% 29.72 in 10.0 mi NW 17.3 mph - N/A   Overcast
8:54 AM 55.4 °F 53.6 °F 94% 29.73 in 10.0 mi NW 13.8 mph - N/A Rain Light Rain
8:58 AM 55.6 °F 53.6 °F 93% 29.70 in 8.0 mi NW 17.3 mph - 0.00 in Rain Light Rain
9:00 AM 55.4 °F 53.6 °F 94% 29.72 in 6.0 mi NW 16.1 mph - N/A Rain Light Rain
9:10 AM 55.4 °F 53.6 °F 94% 29.72 in 4.0 mi NNW 17.3 mph - N/A Rain Light Rain
9:15 AM 55.4 °F 53.6 °F 94% 29.72 in 4.0 mi NNW 13.8 mph - N/A Rain Light Rain
9:35 AM 55.4 °F 53.6 °F 94% 29.72 in 10.0 mi NNW 17.3 mph - N/A   Light Drizzle
9:37 AM 55.4 °F 53.6 °F 94% 29.72 in 10.0 mi NNW 17.3 mph - N/A   Overcast
9:40 AM 55.4 °F 53.6 °F 94% 29.72 in 10.0 mi NNW 17.3 mph - N/A Rain Light Rain
9:50 AM 55.4 °F 53.6 °F 94% 29.72 in 10.0 mi NNW 19.6 mph - N/A Rain Light Rain
9:55 AM 55.4 °F 53.6 °F 94% 29.72 in 10.0 mi NNW 20.7 mph - N/A Rain Light Rain
9:58 AM 55.9 °F 53.6 °F 92% 29.70 in 10.0 mi NNW 19.6 mph - 0.01 in Rain Light Rain
10:08 AM 55.4 °F 53.6 °F 94% 29.72 in 10.0 mi NNW 19.6 mph - N/A Rain Light Rain
10:27 AM 55.4 °F 53.6 °F 94% 29.72 in 5.0 mi NNW 17.3 mph - N/A Rain Light Rain
10:32 AM 55.4 °F 53.6 °F 94% 29.72 in 4.0 mi NNW 13.8 mph - N/A Rain Heavy Rain
10:37 AM 55.4 °F 53.6 °F 94% 29.72 in 4.0 mi NNW 15.0 mph - N/A Rain Rain
10:42 AM 55.4 °F 53.6 °F 94% 29.72 in 7.0 mi NNW 19.6 mph 24.2 mph N/A Rain Light Rain
10:52 AM 57.2 °F 55.4 °F 94% 29.72 in 10.0 mi NNW 17.3 mph 24.2 mph N/A Rain Light Rain
10:57 AM 57.2 °F 55.4 °F 94% 29.72 in 10.0 mi NNW 15.0 mph 26.5 mph N/A Rain Light Rain
10:58 AM 57.2 °F 55.4 °F 94% 29.70 in 10.0 mi NNW 16.1 mph 26.5 mph 0.03 in Rain Light Rain
11:08 AM 57.2 °F 55.4 °F 94% 29.72 in 10.0 mi NNW 19.6 mph 26.5 mph N/A Rain Light Rain
11:33 AM 57.2 °F 53.6 °F 88% 29.71 in 10.0 mi NNW 24.2 mph 31.1 mph N/A   Overcast
11:37 AM 57.2 °F 53.6 °F 88% 29.70 in 10.0 mi NNW 19.6 mph 31.1 mph N/A   Light Drizzle
11:52 AM 57.2 °F 55.4 °F 94% 29.70 in 10.0 mi NNW 18.4 mph 27.6 mph N/A Rain Light Rain
11:57 AM 57.2 °F 55.4 °F 94% 29.71 in 10.0 mi NNW 17.3 mph - N/A Rain Light Rain
11:58 AM 57.2 °F 55.4 °F 94% 29.70 in 10.0 mi NNW 20.7 mph 27.6 mph 0.00 in Rain Light Rain
12:04 PM 57.2 °F 53.6 °F 88% 29.71 in 10.0 mi NNW 23.0 mph 28.8 mph N/A   Overcast
12:09 PM 57.2 °F 53.6 °F 88% 29.71 in 10.0 mi NNW 21.9 mph 28.8 mph N/A   Light Drizzle
12:22 PM 57.2 °F 53.6 °F 88% 29.71 in 10.0 mi NNW 21.9 mph 31.1 mph N/A Rain Light Rain
12:27 PM 57.2 °F 53.6 °F 88% 29.71 in 9.0 mi NNW 24.2 mph - N/A Rain Light Rain
12:32 PM 57.2 °F 53.6 °F 88% 29.71 in 6.0 mi NNW 23.0 mph - N/A Rain Light Rain
12:37 PM 55.4 °F 53.6 °F 94% 29.71 in 3.0 mi NNW 20.7 mph - N/A Rain Heavy Rain
12:42 PM 55.4 °F 53.6 °F 94% 29.71 in 2.5 mi NNW 18.4 mph - N/A Rain Heavy Rain
12:47 PM 55.4 °F 53.6 °F 94% 29.71 in 4.0 mi NNW 18.4 mph - N/A Rain Light Rain
12:58 PM 55.9 °F 54.5 °F 95% 29.70 in 7.0 mi North 17.3 mph - 0.07 in Rain Light Rain
1:03 PM 55.4 °F 53.6 °F 94% 29.71 in 4.0 mi NNW 18.4 mph - N/A Rain Heavy Rain
1:13 PM 55.4 °F 53.6 °F 94% 29.71 in 4.0 mi NNW 15.0 mph - N/A Rain Heavy Rain
1:28 PM 55.4 °F 55.4 °F 100% 29.71 in 3.0 mi NNW 12.7 mph - N/A Rain Heavy Rain
1:38 PM 55.4 °F 53.6 °F 94% 29.71 in 6.0 mi NNW 11.5 mph - N/A Rain Light Rain
1:58 PM 57.2 °F 55.4 °F 94% 29.70 in 10.0 mi NNW 13.8 mph - 0.14 in Rain Light Rain
2:00 PM 57.2 °F 55.4 °F 94% 29.70 in 10.0 mi NNW 15.0 mph 20.7 mph N/A   Overcast
2:05 PM 59.0 °F 55.4 °F 88% 29.70 in 10.0 mi NNW 16.1 mph 20.7 mph N/A   Overcast
2:15 PM 59.0 °F 55.4 °F 88% 29.71 in 10.0 mi North 13.8 mph 23.0 mph N/A   Overcast
2:29 PM 59.0 °F 55.4 °F 88% 29.71 in 9.0 mi North 19.6 mph 24.2 mph N/A Rain Light Rain
2:30 PM 59.0 °F 55.4 °F 88% 29.71 in 9.0 mi North 18.4 mph 24.2 mph N/A Rain Heavy Rain
2:35 PM 57.2 °F 55.4 °F 94% 29.71 in 8.0 mi North 18.4 mph 24.2 mph N/A Rain Light Rain
2:40 PM 57.2 °F 53.6 °F 88% 29.71 in 10.0 mi North 19.6 mph - N/A Rain Light Rain
2:44 PM 57.2 °F 53.6 °F 88% 29.71 in 10.0 mi North 18.4 mph - N/A   Overcast
2:49 PM 57.2 °F 53.6 °F 88% 29.71 in 10.0 mi North 19.6 mph - N/A   Overcast
2:58 PM 57.9 °F 54.3 °F 88% 29.68 in 10.0 mi North 19.6 mph - 0.02 in   Overcast
3:03 PM 57.2 °F 53.6 °F 88% 29.71 in 10.0 mi North 18.4 mph - N/A   Overcast
3:13 PM 57.2 °F 53.6 °F 88% 29.71 in 10.0 mi NNW 16.1 mph - N/A   Overcast
3:21 PM 57.2 °F 53.6 °F 88% 29.71 in 10.0 mi North 20.7 mph 25.3 mph N/A Rain Light Rain
3:31 PM 57.2 °F 53.6 °F 88% 29.71 in 10.0 mi North 19.6 mph 25.3 mph N/A   Overcast
3:36 PM 57.2 °F 53.6 °F 88% 29.71 in 10.0 mi North 19.6 mph 25.3 mph N/A   Overcast
3:51 PM 57.2 °F 51.8 °F 82% 29.71 in 10.0 mi North 19.6 mph 28.8 mph N/A   Overcast
3:56 PM 57.2 °F 51.8 °F 82% 29.71 in 10.0 mi North 21.9 mph 28.8 mph N/A   Overcast
3:58 PM 57.2 °F 51.8 °F 82% 29.70 in 10.0 mi North 20.7 mph 28.8 mph 0.00 in   Overcast
4:43 PM 55.4 °F 51.8 °F 88% 29.71 in 10.0 mi North 16.1 mph - N/A   Overcast
4:48 PM 55.4 °F 51.8 °F 88% 29.71 in 10.0 mi North 18.4 mph - N/A   Overcast
4:58 PM 56.5 °F 51.6 °F 84% 29.68 in 10.0 mi North 21.9 mph - N/A   Overcast
5:58 PM 54.9 °F 50.5 °F 85% 29.69 in 10.0 mi North 20.7 mph 29.9 mph N/A   Overcast
6:03 PM 53.6 °F 50.0 °F 88% 29.71 in 10.0 mi North 23.0 mph 28.8 mph N/A   Overcast
6:33 PM 53.6 °F 50.0 °F 88% 29.71 in 10.0 mi NNW 25.3 mph 31.1 mph N/A   Overcast
6:38 PM 53.6 °F 50.0 °F 88% 29.70 in 10.0 mi NNW 23.0 mph 32.2 mph N/A   Overcast
6:43 PM 53.6 °F 50.0 °F 88% 29.70 in 10.0 mi NNW 23.0 mph 32.2 mph N/A   Overcast
6:53 PM 53.6 °F 50.0 °F 88% 29.71 in 10.0 mi NNW 24.2 mph 32.2 mph N/A   Overcast
6:58 PM 53.6 °F 50.0 °F 88% 29.70 in 10.0 mi NNW 24.2 mph 28.8 mph N/A   Overcast
7:03 PM 53.6 °F 50.0 °F 88% 29.71 in 10.0 mi NNW 24.2 mph 31.1 mph N/A   Overcast
7:06 PM 53.6 °F 50.0 °F 88% 29.71 in 10.0 mi NNW 25.3 mph 33.4 mph N/A   Overcast
7:08 PM 53.6 °F 50.0 °F 88% 29.71 in 10.0 mi NNW 24.2 mph 33.4 mph N/A Rain Light Rain
7:28 PM 51.8 °F 50.0 °F 94% 29.72 in 10.0 mi NNW 21.9 mph 33.4 mph N/A   Overcast
7:48 PM 51.8 °F 50.0 °F 94% 29.72 in 10.0 mi NNW 19.6 mph 29.9 mph N/A   Overcast
7:58 PM 52.2 °F 49.1 °F 89% 29.73 in 10.0 mi NNW 23.0 mph 33.4 mph 0.00 in   Overcast
8:08 PM 51.8 °F 48.2 °F 88% 29.72 in 10.0 mi NNW 21.9 mph 29.9 mph N/A   Overcast
8:13 PM 51.8 °F 48.2 °F 88% 29.72 in 10.0 mi NNW 20.7 mph 29.9 mph N/A   Overcast
8:18 PM 51.8 °F 48.2 °F 88% 29.72 in 10.0 mi NNW 20.7 mph 29.9 mph N/A   Overcast
8:23 PM 51.8 °F 48.2 °F 88% 29.71 in 10.0 mi NNW 21.9 mph - N/A   Overcast
8:58 PM 51.8 °F 48.0 °F 87% 29.72 in 10.0 mi NNW 23.0 mph 32.2 mph N/A   Overcast
9:33 PM 51.8 °F 48.2 °F 88% 29.72 in 10.0 mi NNW 24.2 mph 33.4 mph N/A   Overcast
9:48 PM 51.8 °F 48.2 °F 88% 29.72 in 10.0 mi NW 24.2 mph 34.5 mph N/A   Overcast
9:58 PM 51.6 °F 47.3 °F 85% 29.72 in 10.0 mi NNW 24.2 mph 31.1 mph N/A   Overcast
10:08 PM 51.8 °F 48.2 °F 88% 29.71 in 10.0 mi NW 25.3 mph 32.2 mph N/A   Overcast
10:23 PM 51.8 °F 46.4 °F 82% 29.70 in 10.0 mi NW 28.8 mph 36.8 mph N/A   Overcast
10:43 PM 51.8 °F 46.4 °F 82% 29.68 in 10.0 mi NNW 29.9 mph 38.0 mph N/A   Overcast
10:58 PM 51.8 °F 46.4 °F 82% 29.67 in 10.0 mi NW 28.8 mph 39.1 mph N/A   Overcast
11:58 PM 50.9 °F 46.6 °F 85% 29.65 in 10.0 mi NW 26.5 mph 41.4 mph N/A   Overcast